TimeEST,TemperatureF,Dew PointF,Humidity,Sea Level PressureIn,VisibilityMPH,Wind Direction,Wind SpeedMPH,Gust SpeedMPH,PrecipitationIn,Events,Conditions,WindDirDegrees,DateUTC
12:15 AM,50.2,49.6,98,29.99,10.0,North,-9999.0,-,N/A,,Overcast,0,2012-12-08 05:15:00
12:35 AM,50.2,49.6,98,29.99,10.0,North,-9999.0,-,N/A,,Overcast,0,2012-12-08 05:35:00
12:55 AM,50.2,49.8,99,29.99,10.0,North,-9999.0,-,N/A,,Overcast,0,2012-12-08 05:55:00
1:15 AM,50.5,50.0,98,29.99,10.0,North,-9999.0,-,N/A,,Overcast,0,2012-12-08 06:15:00
1:35 AM,50.9,50.0,97,29.98,10.0,North,-9999.0,-,N/A,,Overcast,0,2012-12-08 06:35:00
1:55 AM,51.1,50.4,97,29.98,10.0,North,-9999.0,-,N/A,,Overcast,0,2012-12-08 06:55:00
2:15 AM,51.1,50.4,97,29.99,10.0,North,-9999.0,-,N/A,,Overcast,0,2012-12-08 07:15:00
2:35 AM,50.9,50.2,97,29.99,10.0,North,-9999.0,-,N/A,,Overcast,0,2012-12-08 07:35:00
2:55 AM,51.3,50.5,97,29.99,10.0,North,-9999.0,-,N/A,,Overcast,0,2012-12-08 07:55:00
3:15 AM,50.4,50.0,99,29.99,10.0,North,-9999.0,-,N/A,,Scattered Clouds,0,2012-12-08 08:15:00
3:35 AM,49.6,49.3,99,29.98,10.0,North,-9999.0,-,N/A,,Scattered Clouds,0,2012-12-08 08:35:00
3:55 AM,49.5,49.3,99,29.99,10.0,North,-9999.0,-,N/A,,Overcast,0,2012-12-08 08:55:00
4:15 AM,49.5,49.3,99,29.98,10.0,North,-9999.0,-,N/A,,Overcast,0,2012-12-08 09:15:00
4:35 AM,50.2,50.0,99,29.99,10.0,North,-9999.0,-,N/A,,Overcast,0,2012-12-08 09:35:00
4:55 AM,49.3,48.9,99,29.99,10.0,North,-9999.0,-,N/A,,Mostly Cloudy,0,2012-12-08 09:55:00
5:15 AM,48.9,48.7,99,29.99,10.0,North,-9999.0,-,N/A,,Mostly Cloudy,0,2012-12-08 10:15:00
5:35 AM,48.6,48.6,100,29.99,10.0,North,-9999.0,-,N/A,,Mostly Cloudy,0,2012-12-08 10:35:00
5:55 AM,49.1,49.1,100,29.99,10.0,North,-9999.0,-,N/A,,Overcast,0,2012-12-08 10:55:00
6:15 AM,49.1,49.1,100,30.00,10.0,North,-9999.0,-,N/A,,Overcast,0,2012-12-08 11:15:00
6:35 AM,49.3,49.1,99,30.00,10.0,North,-9999.0,-,N/A,,Overcast,0,2012-12-08 11:35:00
6:55 AM,49.5,49.1,99,30.00,10.0,North,-9999.0,-,N/A,,Overcast,0,2012-12-08 11:55:00
7:15 AM,50.0,49.6,99,30.00,10.0,North,-9999.0,-,N/A,,Overcast,0,2012-12-08 12:15:00
7:35 AM,50.2,50.0,99,30.01,10.0,North,-9999.0,-,N/A,,Overcast,0,2012-12-08 12:35:00
7:55 AM,50.4,50.0,99,30.02,10.0,North,-9999.0,-,N/A,,Overcast,0,2012-12-08 12:55:00
8:15 AM,50.9,50.5,99,30.02,10.0,North,-9999.0,-,N/A,,Overcast,0,2012-12-08 13:15:00
8:35 AM,51.4,51.1,99,30.02,10.0,North,-9999.0,-,N/A,,Overcast,0,2012-12-08 13:35:00
8:55 AM,52.7,52.2,98,30.02,10.0,North,-9999.0,-,N/A,,Overcast,0,2012-12-08 13:55:00
9:15 AM,54.0,53.1,97,30.02,10.0,North,-9999.0,-,N/A,,Overcast,0,2012-12-08 14:15:00
9:35 AM,56.7,54.5,92,30.02,10.0,North,-9999.0,-,N/A,,Mostly Cloudy,0,2012-12-08 14:35:00
9:55 AM,58.1,54.1,87,30.03,10.0,North,-9999.0,-,N/A,,Scattered Clouds,0,2012-12-08 14:55:00
10:15 AM,61.7,53.8,75,30.03,10.0,North,-9999.0,-,N/A,,Scattered Clouds,0,2012-12-08 15:15:00
10:35 AM,61.7,53.8,75,30.03,10.0,North,-9999.0,-,N/A,,Overcast,0,2012-12-08 15:35:00
10:55 AM,62.8,53.4,71,30.02,10.0,North,-9999.0,-,N/A,,Mostly Cloudy,0,2012-12-08 15:55:00
11:15 AM,64.8,53.6,67,30.01,10.0,North,-9999.0,-,N/A,,Scattered Clouds,0,2012-12-08 16:15:00
11:35 AM,66.0,53.6,64,30.00,10.0,North,-9999.0,-,N/A,,Scattered Clouds,0,2012-12-08 16:35:00
11:55 AM,66.7,53.4,62,30.00,10.0,North,-9999.0,-,N/A,,Mostly Cloudy,0,2012-12-08 16:55:00
12:15 PM,64.8,52.7,65,29.99,10.0,North,-9999.0,-,N/A,,Overcast,0,2012-12-08 17:15:00
12:35 PM,65.3,52.9,64,29.99,10.0,North,-9999.0,-,N/A,,Overcast,0,2012-12-08 17:35:00
12:55 PM,65.7,52.9,63,29.98,10.0,North,-9999.0,-,N/A,,Overcast,0,2012-12-08 17:55:00
1:15 PM,66.2,52.7,62,29.98,10.0,North,-9999.0,-,N/A,,Mostly Cloudy,0,2012-12-08 18:15:00
1:35 PM,67.6,52.7,59,29.96,10.0,North,-9999.0,-,N/A,,Mostly Cloudy,0,2012-12-08 18:35:00
1:55 PM,67.8,52.5,58,29.96,10.0,North,-9999.0,-,N/A,,Mostly Cloudy,0,2012-12-08 18:55:00
2:15 PM,66.9,52.7,60,29.96,10.0,North,-9999.0,-,N/A,,Mostly Cloudy,0,2012-12-08 19:15:00
2:35 PM,66.6,52.3,60,29.96,10.0,North,-9999.0,-,N/A,,Mostly Cloudy,0,2012-12-08 19:35:00
2:55 PM,67.5,52.7,59,29.96,10.0,North,-9999.0,-,N/A,,Mostly Cloudy,0,2012-12-08 19:55:00
3:15 PM,66.9,52.7,60,29.97,10.0,North,-9999.0,-,N/A,,Overcast,0,2012-12-08 20:15:00
3:55 PM,66.2,52.3,61,29.98,10.0,North,-9999.0,-,N/A,Rain,Light Rain,0,2012-12-08 20:55:00
4:15 PM,64.8,52.7,65,29.99,10.0,North,-9999.0,-,N/A,,Light Drizzle,0,2012-12-08 21:15:00
4:55 PM,63.9,52.5,67,30.00,10.0,North,-9999.0,-,N/A,,Overcast,0,2012-12-08 21:55:00
5:15 PM,63.3,52.7,68,30.01,10.0,North,-9999.0,-,N/A,,Overcast,0,2012-12-08 22:15:00
5:35 PM,61.7,53.4,74,30.01,10.0,North,-9999.0,-,N/A,,Overcast,0,2012-12-08 22:35:00
5:55 PM,59.9,54.1,81,30.02,10.0,North,-9999.0,-,N/A,,Overcast,0,2012-12-08 22:55:00
6:15 PM,58.8,54.3,85,30.02,10.0,North,-9999.0,-,N/A,Rain,Light Rain,0,2012-12-08 23:15:00
6:35 PM,57.4,54.1,89,30.02,10.0,North,-9999.0,-,N/A,,Mostly Cloudy,0,2012-12-08 23:35:00
6:55 PM,55.9,53.4,91,30.03,10.0,North,-9999.0,-,N/A,,Mostly Cloudy,0,2012-12-08 23:55:00
7:15 PM,55.0,52.9,92,30.03,10.0,North,-9999.0,-,N/A,,Mostly Cloudy,0,2012-12-09 00:15:00
7:35 PM,53.8,52.2,94,30.04,10.0,North,-9999.0,-,N/A,,Mostly Cloudy,0,2012-12-09 00:35:00
7:55 PM,54.0,52.5,95,30.04,10.0,North,-9999.0,-,N/A,,Overcast,0,2012-12-09 00:55:00
8:15 PM,54.0,52.3,94,30.04,10.0,North,-9999.0,-,N/A,,Overcast,0,2012-12-09 01:15:00
8:35 PM,53.6,51.8,94,30.05,10.0,North,-9999.0,-,N/A,,Mostly Cloudy,0,2012-12-09 01:35:00
8:55 PM,52.9,52.0,97,30.05,10.0,North,-9999.0,-,N/A,,Mostly Cloudy,0,2012-12-09 01:55:00
9:15 PM,53.8,53.1,97,30.06,7.0,North,-9999.0,-,N/A,Rain,Light Rain,0,2012-12-09 02:15:00
9:35 PM,54.0,53.6,99,30.06,7.0,North,-9999.0,-,N/A,,Overcast,0,2012-12-09 02:35:00
9:55 PM,54.1,53.8,99,30.06,7.0,North,-9999.0,-,N/A,,Overcast,0,2012-12-09 02:55:00
10:15 PM,53.8,53.8,100,30.06,5.0,North,-9999.0,-,N/A,,Drizzle,0,2012-12-09 03:15:00
10:55 PM,53.6,53.6,100,30.06,4.0,North,-9999.0,-,N/A,,Light Drizzle,0,2012-12-09 03:55:00
11:35 PM,53.2,53.2,100,30.06,4.0,North,-9999.0,-,N/A,,Overcast,0,2012-12-09 04:35:00
11:55 PM,53.1,53.1,100,30.06,4.0,North,-9999.0,-,N/A,,Overcast,0,2012-12-09 04:55:00